Find Starlink 4648

NORAD ID: 53602 Int'l Des: 2022-104 Owner: SPXS Country: US Constellation: starlink operational
LEOCIRCULAR

Live-Position

3D-Globus wird geladen...

Über Starlink 4648

Beschreibung wird geladen...

Nächste Überflüge

Passes for default location (London). Set your location on the main map for personalized predictions.

Höhenverlauf

Loading altitude history...

Zweizeiliger Elementsatz

1 53602U 22104Q 26129.81378819 .00000087 00000-0 23552-4 0 9996
2 53602 53.2190 324.6631 0001353 92.7684 267.3463 15.08838600204917
Epoch: 9. Mai 2026 • Age: 19 hours

Aktueller Status

Höhe 545.4 km
Geschwindigkeit 7.60 km/s
Subsatellitenpunkt 53.24°N, 37.05°W
Startdatum 28. Aug. 2022
Alter 3.6 years
Typ internet

Technische Details

Klassifizierung Payload
Masse 300.00 kg
Trockenmasse 290.00 kg
Gesamtmasse 300.00 kg
Länge 0.20 m
Durchmesser 2.80 m
Spannweite 9.00 m
Form Box + pan
Hersteller SPXS
Bus-Typ Starlink
Phasenstatus In Orbit
Besitzer/Staat SPXS/US

Most Searched